Вернуться в каталог

PEGASUS DEB

АктивенPO
NORAD 39309·DEBRIS·🇺🇸 United States

Запущен May 19, 1994 с Vandenberg Space Force Base

Loading…

Ближайшие Пролёты (ближайшие 24 часа)

TLE

УстаревшееSource: Space-Track

Эпоха: Aug 25, 2026, 04:04 UTC

1 39309U 94029AEU 26237.16970772  .00003797  00000-0  72605-3 0  9996
2 39309  81.7415 187.5329 0230145 346.3110  13.1905 14.48088641747652

Отслеживайте PEGASUS DEB в реальном времени с AllMySat

Download on the App Store